Simultaneous Nadir Overpasses (SNOs) Predictions

Prediction of SNOs near equator between AQUA and NPP Satellite Orbit:

Table of predicted SNOs near equator for the next 14.0 days since TLE Epoch: 3/30/2014
Index Date (AQUA) Time (AQUA) AQUA Lat,Lon Date (NPP) Time (NPP) NPP Lat,Lon Distance(km) Time Diff (sec)
1 03/31/2014 21:48:30 -29.97, 52.19 03/31/2014 21:38:38 -30.04, 52.56 35.82 592
2 03/31/2014 22:38:00 29.95,-140.18 03/31/2014 22:29:25 29.94,-140.12 6.00 515
3 03/31/2014 23:22:08 -11.01, 31.93 03/31/2014 23:14:43 -11.01, 31.92 0.93 445
4 04/01/2014 00:06:35 -7.35,-156.52 04/01/2014 00:00:19 -7.39,-156.62 11.84 376
5 04/01/2014 00:54:42 11.89, 12.12 04/01/2014 00:49:42 11.97, 11.76 40.16 300
6 04/01/2014 01:42:57 -16.46,-179.25 04/01/2014 01:39:12 -16.61,-179.86 67.10 225
7 04/01/2014 02:31:04 21.01, -10.55 04/01/2014 02:28:35 21.19, -11.41 92.19 149
8 04/03/2014 14:04:56 -29.96, 168.08 04/03/2014 13:55:38 -29.99, 168.33 24.08 558
9 04/03/2014 14:53:19 25.92, -23.27 04/03/2014 14:45:17 25.92, -23.28 0.92 482
10 04/03/2014 15:35:48 -0.98, 149.97 04/03/2014 15:28:53 -0.98, 149.96 1.26 415
11 04/03/2014 16:22:27 -9.41, -40.19 04/03/2014 16:16:45 -9.44, -40.40 22.41 342
12 04/03/2014 17:10:35 13.89, 128.44 04/03/2014 17:06:08 14.01, 127.99 50.54 267
13 04/03/2014 17:58:49 -18.52, -62.89 04/03/2014 17:55:38 -18.65, -63.61 76.57 191
14 04/06/2014 05:31:59 29.97, 116.32 04/06/2014 05:21:59 30.04, 116.75 42.32 600
15 04/06/2014 06:21:22 -29.98, -76.03 04/06/2014 06:12:40 -30.02, -75.92 11.64 522
16 04/06/2014 07:06:50 15.39, 95.09 04/06/2014 06:59:19 15.39, 95.09 0.55 451
17 04/06/2014 07:50:04 6.85, -92.47 04/06/2014 07:43:41 6.87, -92.51 5.10 383
18 04/06/2014 08:38:19 -11.43, 76.14 04/06/2014 08:33:11 -11.52, 75.85 33.66 308
19 04/06/2014 09:26:26 15.97,-115.20 04/06/2014 09:22:34 16.10,-115.75 60.94 232
20 04/06/2014 10:14:40 -20.59, 53.48 04/06/2014 10:12:04 -20.73, 52.66 86.18 156
21 04/08/2014 21:48:23 29.97,-127.78 04/08/2014 21:39:00 30.02,-127.48 29.39 563
22 04/08/2014 22:37:21 -28.48, 40.26 04/08/2014 22:29:15 -28.48, 40.27 1.00 486
23 04/08/2014 23:20:05 3.97,-146.54 04/08/2014 23:13:06 3.97,-146.52 1.26 419
24 04/09/2014 00:05:52 9.03, 23.90 04/09/2014 00:00:05 9.07, 23.75 16.85 347
25 04/09/2014 00:54:07 -13.60,-167.48 04/09/2014 00:49:35 -13.72,-167.88 44.96 272
26 04/09/2014 01:42:14 18.14, 1.19 04/09/2014 01:38:58 18.29, 0.53 71.47 196
27 04/09/2014 02:30:28 -22.76, 169.89 04/09/2014 02:28:28 -22.92, 168.97 95.61 120
28 04/11/2014 13:15:16 -30.00,-179.51 04/11/2014 13:05:16 -30.22,-179.07 48.45 600
29 04/11/2014 14:04:46 30.00, -11.89 04/11/2014 13:56:01 30.01, -11.72 16.16 525
30 04/11/2014 14:50:58 -18.52, 158.56 04/11/2014 14:43:26 -18.52, 158.57 0.99 452
31 04/11/2014 15:33:38 -6.27, -28.45 04/11/2014 15:27:13 -6.27, -28.46 0.85 385
32 04/11/2014 16:21:37 11.30, 140.29 04/11/2014 16:16:27 11.37, 140.04 29.06 310
